Location: Caltech
(34.1382°N, 118.1253°W)
Time: 23:41:03
(UTC-07:00)

OPAL - Visible Passes

Search period start: 04 May 2016 00:00
Search period end: 14 May 2016 00:00
Orbit: 743 x 796 km, 100.2° (Epoch: 04 May)

Date Brightness Start Highest point End Pass type
(mag) Time Alt. Az. Time Alt. Az. Time Alt. Az.
04 May 9.6 01:37:53 10° NNE 01:39:52 24° NNE 01:39:52 24° NNE visible
05 May 9.9 01:02:45 10° NNE 01:04:02 17° NE 01:04:02 17° NE visible
05 May 9.6 02:42:22 10° NNW 02:44:20 18° NW 02:44:20 18° NW visible
06 May 9.3 02:06:06 10° N 02:08:29 26° NNW 02:08:29 26° NNW visible
07 May 9.5 01:30:31 10° NNE 01:32:39 25° NNE 01:32:39 25° NNE visible
07 May 9.9 03:12:07 10° NW 03:12:57 11° NW 03:12:57 11° NW visible
08 May 10.0 00:55:35 10° NE 00:56:48 16° NE 00:56:48 16° NE visible
08 May 9.4 02:34:39 10° NNW 02:37:06 21° NW 02:37:06 21° NW visible
09 May 9.2 01:58:37 10° N 02:01:16 30° N 02:01:16 30° N visible
10 May 9.5 01:23:11 10° NNE 01:25:25 26° NNE 01:25:25 26° NNE visible
10 May 9.7 03:03:51 10° NNW 03:05:43 14° NW 03:05:43 14° NW visible
11 May 10.0 00:48:29 10° NE 00:49:34 15° NE 00:49:34 15° NE visible
11 May 9.2 02:27:02 10° N 02:29:52 26° NNW 02:29:52 26° NNW visible
12 May 9.0 01:51:11 10° N 01:54:01 33° N 01:54:01 33° N visible
13 May 9.5 01:15:56 10° NNE 01:18:10 25° NE 01:18:10 25° NE visible
13 May 9.5 02:55:55 10° NNW 02:58:28 18° NW 02:58:28 18° NW visible
